EN

Hourly Weather Trud

Today, 1 October, Thursday

Time Temperature Precipitation Wind Pressure Humidity
00:00 +12°C° 0 mm 1 mps 770 mmHg 72%
01:00 +12°C° 0 mm 1 mps 770 mmHg 72%
02:00 +12°C° 0 mm 1 mps 770 mmHg 72%
03:00 +12°C° 0 mm 1 mps 770 mmHg 71%
04:00 +12°C° 0 mm 1 mps 770 mmHg 72%
05:00 +11°C° 0 mm 1 mps 770 mmHg 73%
06:00 +11°C° 0 mm 1 mps 770 mmHg 74%
07:00 +13°C° 0 mm 1 mps 770 mmHg 70%
08:00 +14°C° 0 mm 1 mps 770 mmHg 65%
09:00 +16°C° 0 mm 2 mps 770 mmHg 64%
10:00 +17°C° 0 mm 2 mps 770 mmHg 60%
11:00 +18°C° 0 mm 2 mps 770 mmHg 56%
12:00 +20°C° 0 mm 2 mps 770 mmHg 51%
13:00 +20°C° 0 mm 2 mps 770 mmHg 51%
14:00 +20°C° 0 mm 2 mps 770 mmHg 51%
15:00 +21°C° 0 mm 2 mps 769 mmHg 51%
16:00 +19°C° 0 mm 2 mps 769 mmHg 57%
17:00 +17°C° 0 mm 2 mps 769 mmHg 64%
18:00 +16°C° 0 mm 1 mps 769 mmHg 70%
19:00 +15°C° 0 mm 1 mps 769 mmHg 72%
20:00 +14°C° 0 mm 1 mps 769 mmHg 74%
21:00 +14°C° 0 mm 1 mps 770 mmHg 76%
22:00 +13°C° 0 mm 1 mps 769 mmHg 78%
23:00 +13°C° 0 mm 1 mps 769 mmHg 80%

Tomorrow, 2 October, Friday

Time Temperature Precipitation Wind Pressure Humidity
00:00 +12°C° 0 mm 1 mps 769 mmHg 82%
01:00 +12°C° 0 mm 1 mps 769 mmHg 83%
02:00 +12°C° 0 mm 1 mps 769 mmHg 84%
03:00 +11°C° 0 mm 0 mps 770 mmHg 85%
04:00 +10°C° 0 mm 0 mps 769 mmHg 85%
05:00 +10°C° 0 mm 0 mps 769 mmHg 86%
06:00 +10°C° 0 mm 0 mps 769 mmHg 86%
07:00 +13°C° 0 mm 1 mps 769 mmHg 79%
08:00 +15°C° 0 mm 1 mps 770 mmHg 72%
09:00 +16°C° 0 mm 1 mps 770 mmHg 65%
10:00 +19°C° 0 mm 1 mps 769 mmHg 61%
11:00 +20°C° 0 mm 1 mps 769 mmHg 56%
12:00 +21°C° 0 mm 1 mps 769 mmHg 52%
13:00 +21°C° 0 mm 1 mps 769 mmHg 50%
14:00 +21°C° 0 mm 1 mps 769 mmHg 49%
15:00 +21°C° 0 mm 1 mps 769 mmHg 47%
16:00 +20°C° 0 mm 1 mps 769 mmHg 53%
17:00 +18°C° 0 mm 1 mps 768 mmHg 59%
18:00 +15°C° 0 mm 1 mps 768 mmHg 64%
19:00 +15°C° 0 mm 1 mps 769 mmHg 67%
20:00 +14°C° 0 mm 1 mps 769 mmHg 69%
21:00 +14°C° 0 mm 1 mps 769 mmHg 71%
22:00 +13°C° 0 mm 1 mps 769 mmHg 73%
23:00 +13°C° 0 mm 1 mps 769 mmHg 75%

Day after tomorrow, 3 October, Saturday

Time Temperature Precipitation Wind Pressure Humidity
00:00 +12°C° 0 mm 1 mps 769 mmHg 77%
01:00 +12°C° 0 mm 1 mps 769 mmHg 80%
02:00 +12°C° 0 mm 1 mps 769 mmHg 82%
03:00 +11°C° 0 mm 1 mps 769 mmHg 84%
04:00 +11°C° 0 mm 1 mps 769 mmHg 85%
05:00 +11°C° 0 mm 1 mps 769 mmHg 87%
06:00 +11°C° 0 mm 1 mps 769 mmHg 88%
07:00 +12°C° 0 mm 1 mps 769 mmHg 82%
08:00 +14°C° 0 mm 2 mps 769 mmHg 76%
09:00 +16°C° 0 mm 2 mps 769 mmHg 71%
10:00 +17°C° 0 mm 2 mps 769 mmHg 65%
11:00 +18°C° 0 mm 2 mps 768 mmHg 59%
12:00 +19°C° 0 mm 3 mps 768 mmHg 53%
13:00 +19°C° 0 mm 3 mps 768 mmHg 52%
14:00 +19°C° 0 mm 3 mps 768 mmHg 51%
15:00 +19°C° 0 mm 3 mps 768 mmHg 50%
16:00 +18°C° 0 mm 2 mps 768 mmHg 57%
17:00 +16°C° 0 mm 2 mps 768 mmHg 63%
18:00 +14°C° 0 mm 2 mps 768 mmHg 70%
19:00 +14°C° 0 mm 2 mps 768 mmHg 74%
20:00 +13°C° 0 mm 2 mps 769 mmHg 77%
21:00 +12°C° 0 mm 2 mps 769 mmHg 81%
22:00 +12°C° 0 mm 2 mps 769 mmHg 83%
23:00 +10°C° 0 mm 2 mps 769 mmHg 85%

4 October, Sunday

Time Temperature Precipitation Wind Pressure Humidity
00:00 +10°C° 0 mm 2 mps 769 mmHg 86%
01:00 +9°C° 0 mm 2 mps 769 mmHg 88%
02:00 +9°C° 0 mm 2 mps 769 mmHg 89%
03:00 +8°C° 0 mm 2 mps 770 mmHg 90%
04:00 +8°C° 0 mm 2 mps 770 mmHg 91%
05:00 +8°C° 0 mm 2 mps 770 mmHg 91%
06:00 +8°C° 0 mm 2 mps 770 mmHg 92%
07:00 +9°C° 0 mm 2 mps 771 mmHg 83%
08:00 +10°C° 0 mm 3 mps 771 mmHg 75%
09:00 +12°C° 0 mm 3 mps 771 mmHg 67%
10:00 +12°C° 0 mm 4 mps 771 mmHg 62%
11:00 +13°C° 0 mm 4 mps 771 mmHg 57%
12:00 +13°C° 0 mm 4 mps 771 mmHg 52%
13:00 +13°C° 0 mm 4 mps 771 mmHg 51%
14:00 +13°C° 0 mm 4 mps 771 mmHg 50%
15:00 +13°C° 0 mm 4 mps 771 mmHg 49%
16:00 +11°C° 0 mm 4 mps 771 mmHg 52%
17:00 +10°C° 0 mm 3 mps 771 mmHg 55%
18:00 +8°C° 0 mm 3 mps 771 mmHg 58%
19:00 +8°C° 0 mm 3 mps 771 mmHg 59%
20:00 +7°C° 0 mm 3 mps 772 mmHg 61%
21:00 +5°C° 0 mm 3 mps 772 mmHg 62%
22:00 +6°C° 0 mm 2 mps 772 mmHg 64%
23:00 +5°C° 0 mm 2 mps 772 mmHg 66%

5 October, Monday

Time Temperature Precipitation Wind Pressure Humidity
00:00 +5°C° 0 mm 2 mps 772 mmHg 68%
01:00 +5°C° 0 mm 2 mps 772 mmHg 71%
02:00 +4°C° 0 mm 2 mps 772 mmHg 74%
03:00 +4°C° 0 mm 2 mps 772 mmHg 76%
04:00 +4°C° 0 mm 2 mps 772 mmHg 79%
05:00 +3°C° 0 mm 2 mps 773 mmHg 81%
06:00 +3°C° 0 mm 2 mps 773 mmHg 83%
07:00 +4°C° 0 mm 2 mps 773 mmHg 75%
08:00 +6°C° 0 mm 2 mps 773 mmHg 66%
09:00 +8°C° 0 mm 2 mps 773 mmHg 57%
10:00 +9°C° 0 mm 2 mps 773 mmHg 52%
11:00 +10°C° 0 mm 2 mps 773 mmHg 47%
12:00 +12°C° 0 mm 2 mps 773 mmHg 42%
13:00 +12°C° 0 mm 2 mps 772 mmHg 40%
14:00 +13°C° 0 mm 1 mps 772 mmHg 39%
15:00 +13°C° 0 mm 1 mps 772 mmHg 38%
16:00 +11°C° 0 mm 1 mps 772 mmHg 43%
17:00 +10°C° 0 mm 1 mps 772 mmHg 47%
18:00 +7°C° 0 mm 0 mps 771 mmHg 52%
19:00 +7°C° 0 mm 0 mps 771 mmHg 53%
20:00 +6°C° 0 mm 0 mps 771 mmHg 55%
21:00 +6°C° 0 mm 0 mps 771 mmHg 56%
22:00 +6°C° 0 mm 0 mps 771 mmHg 57%
23:00 +5°C° 0 mm 0 mps 771 mmHg 59%

6 October, Tuesday

Time Temperature Precipitation Wind Pressure Humidity
00:00 +5°C° 0 mm 0 mps 771 mmHg 60%
01:00 +5°C° 0 mm 0 mps 771 mmHg 60%
02:00 +5°C° 0 mm 0 mps 771 mmHg 61%
03:00 +5°C° 0 mm 0 mps 771 mmHg 61%
04:00 +6°C° 0 mm 1 mps 770 mmHg 61%
05:00 +6°C° 0 mm 1 mps 770 mmHg 61%
06:00 +6°C° 0 mm 1 mps 770 mmHg 61%
07:00 +8°C° 0 mm 1 mps 770 mmHg 58%
08:00 +8°C° 0 mm 2 mps 770 mmHg 55%
09:00 +10°C° 0 mm 2 mps 770 mmHg 52%
10:00 +11°C° 0 mm 3 mps 769 mmHg 48%
11:00 +12°C° 0 mm 3 mps 769 mmHg 44%
12:00 +14°C° 0 mm 4 mps 769 mmHg 39%
13:00 +14°C° 0 mm 4 mps 768 mmHg 39%
14:00 +14°C° 0 mm 4 mps 768 mmHg 38%
15:00 +14°C° 0 mm 4 mps 767 mmHg 38%
16:00 +13°C° 0 mm 3 mps 767 mmHg 40%
17:00 +12°C° 0 mm 3 mps 767 mmHg 42%
18:00 +11°C° 0 mm 3 mps 767 mmHg 44%
19:00 +11°C° 0 mm 3 mps 767 mmHg 43%
20:00 +11°C° 0 mm 3 mps 766 mmHg 43%
21:00 +11°C° 0 mm 3 mps 766 mmHg 43%
22:00 +11°C° 0 mm 3 mps 766 mmHg 45%
23:00 +10°C° 0 mm 3 mps 766 mmHg 48%
Show more

We Need Your Consent

Meteoprog and our Service Providers may store and access personal data such as cookies, device identifiers or other similar technologies on your device and process such data to personalise content and ads, as well as provide social media features and to analyse the traffic.

  • Store and/or access information on your device

    Cookies, device identifiers or other information can be stored or accessed on your device for the purposes indicated above.

  • Personalised ads and content, ad and content measurement, audience insights, and products development

    Ads and content can be personalised based on a profile. More data can be added to better personalise ads and content. Ad and content performance can be measured. Insights about the audience who saw the ads and content can be derived. Such data can be used to develop or improve user’s experience, systems and software.

By clicking ‘I Agree’ you will allow the use of indicated cookies, device identifiers, web beacons or other similar technologies. Your settings can be changed in the browser on your device.

For certain purposes, legitimate interests may be relied on, rather than consent. You can read more about this in our Privacy and Cookie Policy.